Weather History for Buffalo, MN

Change the Weather History Date:

Thursday, January 10, 2013

  Actual Average (KSTC) Record (KSTC)
Temperature  
Mean Temperature 34 °F 11 °F  
Max Temperature 40 °F 21 °F 52 °F (2012)
Min Temperature 29 °F 2 °F -30 °F (1982)
Degree Days  
Heating Degree Days 30 54  
Month to date heating degree days 533  
Since 1 July heating degree days 3980  
Cooling Degree Days 0 0  
Month to date cooling degree days 0  
Year to date cooling degree days 0  
Moisture  
Dew Point 26 °F    
Average Humidity 72    
Maximum Humidity 98    
Minimum Humidity 47    
Precipitation  
Precipitation 0.11 in 0.02 in 0.60 in (1975)
Month to date precipitation 0.24  
Year to date precipitation 0.24  
Snow  
Snow 0.00 in 0.30 in 9.00 in (1976)
Month to date snowfall 3.0  
Since 1 July snowfall 21.6  
Snow Depth -    
Sea Level Pressure  
Sea Level Pressure 30.06 in    
Wind  
Wind Speed 8 mph (SE)    
Max Wind Speed 15 mph    
Max Gust Speed 18 mph    
Visibility 8 miles    
Events Rain    
T = Trace of Precipitation, MM = Missing Value Source: NWS Daily Summary

Daily Weather History Graph

Daily Weather History Graph

Search for Another Location

Airport:

Trip Planner

Search our weather history database for the weather conditions in past years. The results will help you decide how hot, cold, wet, or windy it might be!

Date:

Astronomy

Jan. 10, 2013 Rise Set
Actual Time 7:52 AM CST 4:53 PM CST
Civil Twilight 7:19 AM CST 5:26 PM CST
Nautical Twilight 6:42 AM CST 6:03 PM CST
Astronomical Twilight 6:07 AM CST 6:39 PM CST
Moon 6:32 AM CST (1/10) 4:02 PM CST (1/10)
Length of Visible Light 10h 07m
Length of Day
9h 01m
Waning Crescent, 2% of the Moon is Illuminated
Jan 10
Waning Crescent
Jan 11
New
Jan 18
First Quarter
Jan 26
Full
Feb 3
Last Quarter

Hourly Weather History & Observations

Time (CST) Temp. Windchill Dew Point Humidity Pressure Visibility Wind Dir Wind Speed Gust Speed Precip Events Conditions
12:14 AM 30.2 °F 21.3 °F 23.4 °F 76% 30.26 in 10.0 mi SSE 10.4 mph 18.4 mph N/A   Clear
12:35 AM 29.8 °F 22.2 °F 23.4 °F 77% 30.26 in 10.0 mi SSE 8.1 mph - N/A   Clear
12:54 AM 30.2 °F 22.6 °F 23.9 °F 77% 30.26 in 10.0 mi SSE 8.1 mph - N/A   Clear
1:15 AM 30.0 °F 24.1 °F 24.3 °F 79% 30.26 in 10.0 mi SSE 5.8 mph - N/A   Clear
1:35 AM 30.4 °F 23.6 °F 25.0 °F 80% 30.25 in 10.0 mi SSE 6.9 mph - N/A   Clear
1:55 AM 30.2 °F 23.4 °F 25.2 °F 82% 30.26 in 10.0 mi SSE 6.9 mph - N/A   Clear
2:15 AM 30.7 °F 23.3 °F 25.5 °F 81% 30.26 in 10.0 mi SSE 8.1 mph - N/A   Clear
2:35 AM 31.1 °F 24.5 °F 25.9 °F 81% 30.25 in 10.0 mi SSE 6.9 mph - N/A   Clear
2:55 AM 32.0 °F 26.4 °F 26.2 °F 79% 30.25 in 10.0 mi SSE 5.8 mph - N/A   Clear
3:15 AM 31.8 °F 26.2 °F 26.2 °F 80% 30.25 in 10.0 mi SSE 5.8 mph - N/A   Clear
3:35 AM 31.8 °F 27.3 °F 25.9 °F 79% 30.25 in 10.0 mi SSE 4.6 mph - N/A   Clear
3:55 AM 31.6 °F 28.3 °F 26.1 °F 80% 30.24 in 10.0 mi SSE 3.5 mph - N/A   Clear
4:15 AM 31.5 °F 26.8 °F 25.7 °F 79% 30.23 in 10.0 mi SE 4.6 mph - N/A   Clear
4:35 AM 32.0 °F 27.5 °F 25.7 °F 78% 30.22 in 10.0 mi SSE 4.6 mph - N/A   Clear
4:54 AM 32.5 °F 27.1 °F 25.5 °F 75% 30.22 in 10.0 mi SSE 5.8 mph - N/A   Clear
5:15 AM 33.8 °F 27.7 °F 25.7 °F 72% 30.21 in 10.0 mi SSE 6.9 mph - N/A   Clear
5:35 AM 33.8 °F 27.0 °F 25.5 °F 72% 30.21 in 10.0 mi SSE 8.1 mph - N/A   Clear
5:54 AM 33.8 °F 26.4 °F 25.5 °F 72% 30.21 in 10.0 mi South 9.2 mph - N/A   Clear
6:15 AM 33.8 °F 26.4 °F 25.5 °F 72% 30.21 in 10.0 mi SSE 9.2 mph - N/A   Clear
6:35 AM 33.8 °F 26.4 °F 25.5 °F 72% 30.21 in 10.0 mi SSE 9.2 mph - N/A   Clear
6:54 AM 34.0 °F 27.2 °F 25.3 °F 71% 30.21 in 10.0 mi South 8.1 mph - N/A   Clear
7:15 AM 34.2 °F 28.2 °F 25.3 °F 70% 30.21 in 10.0 mi SSE 6.9 mph - N/A   Clear
7:54 AM 34.0 °F 28.8 °F 25.0 °F 70% 30.21 in 10.0 mi SSE 5.8 mph - N/A   Clear
8:15 AM 33.8 °F 28.6 °F 25.2 °F 71% 30.21 in 10.0 mi SSE 5.8 mph - N/A   Clear
8:35 AM 33.8 °F 28.6 °F 25.2 °F 71% 30.20 in 10.0 mi SSE 5.8 mph - N/A   Clear
8:54 AM 34.0 °F 29.8 °F 24.8 °F 69% 30.20 in 10.0 mi SSE 4.6 mph - N/A   Clear
9:15 AM 34.7 °F 28.8 °F 24.4 °F 66% 30.20 in 10.0 mi SSE 6.9 mph - N/A   Clear
9:34 AM 35.6 °F 30.7 °F 24.3 °F 63% 30.20 in 10.0 mi SSE 5.8 mph - N/A   Clear
9:55 AM 36.5 °F 31.0 °F 24.3 °F 61% 30.19 in 10.0 mi South 6.9 mph - N/A   Clear
10:15 AM 37.4 °F 32.1 °F 24.6 °F 60% 30.19 in 10.0 mi SSE 6.9 mph - N/A   Clear
10:34 AM 37.9 °F 33.5 °F 24.1 °F 57% 30.18 in 10.0 mi SSE 5.8 mph - N/A   Clear
10:55 AM 37.9 °F 32.1 °F 24.1 °F 57% 30.17 in 10.0 mi SSE 8.1 mph - N/A   Clear
11:15 AM 38.3 °F 33.9 °F 23.9 °F 56% 30.16 in 10.0 mi SSE 5.8 mph - N/A   Clear
11:34 AM 38.3 °F 32.5 °F 23.9 °F 56% 30.14 in 10.0 mi SE 8.1 mph - N/A   Clear
11:55 AM 38.5 °F 32.1 °F 23.4 °F 55% 30.12 in 10.0 mi SSE 9.2 mph - N/A   Clear
12:15 PM 38.5 °F 34.1 °F 23.5 °F 55% 30.11 in 10.0 mi SSE 5.8 mph - N/A   Clear
12:34 PM 39.7 °F 33.2 °F 23.4 °F 52% 30.08 in 10.0 mi SE 10.4 mph 16.1 mph N/A   Clear
12:55 PM 40.5 °F 34.6 °F 22.3 °F 48% 30.06 in 10.0 mi SE 9.2 mph 17.3 mph N/A   Clear
1:15 PM 39.7 °F 34.3 °F 21.9 °F 49% 30.04 in 10.0 mi SSE 8.1 mph - N/A   Clear
1:34 PM 39.6 °F 33.5 °F 22.1 °F 50% 30.02 in 10.0 mi SE 9.2 mph - N/A   Clear
1:55 PM 39.9 °F 33.4 °F 22.1 °F 49% 30.01 in 10.0 mi SE 10.4 mph - N/A   Clear
2:15 PM 39.7 °F 34.3 °F 21.2 °F 48% 30.01 in 10.0 mi SE 8.1 mph 16.1 mph N/A   Clear
2:34 PM 40.1 °F 34.7 °F 21.2 °F 47% 30.01 in 10.0 mi SSE 8.1 mph - N/A   Scattered Clouds
2:55 PM 39.9 °F 35.8 °F 22.3 °F 49% 30.01 in 10.0 mi SE 5.8 mph - N/A   Mostly Cloudy
3:15 PM 39.6 °F 34.7 °F 23.0 °F 52% 29.99 in 10.0 mi SE 6.9 mph - N/A   Overcast
3:34 PM 39.2 °F 33.6 °F 23.7 °F 54% 29.99 in 10.0 mi ESE 8.1 mph - N/A   Overcast
3:55 PM 38.5 °F 32.7 °F 23.5 °F 55% 29.97 in 10.0 mi ESE 8.1 mph - N/A   Overcast
4:15 PM 38.5 °F 31.6 °F 22.5 °F 53% 29.96 in 10.0 mi ESE 10.4 mph - N/A   Overcast
4:34 PM 38.5 °F 31.1 °F 21.7 °F 51% 29.95 in 10.0 mi ESE 11.5 mph - N/A   Light Drizzle
4:55 PM 37.4 °F 29.8 °F 23.9 °F 58% 29.94 in 10.0 mi ESE 11.5 mph - N/A Rain Rain
5:15 PM 36.1 °F 28.7 °F 25.7 °F 66% 29.93 in 10.0 mi East 10.4 mph 16.1 mph N/A Rain Light Rain
5:34 PM 34.7 °F 28.1 °F 27.5 °F 75% 29.92 in 10.0 mi ESE 8.1 mph - N/A Rain Rain
5:55 PM 34.0 °F 27.2 °F 28.4 °F 80% 29.91 in 7.0 mi ESE 8.1 mph - 0.01 in Rain Rain
6:15 PM 33.3 °F 25.7 °F 29.7 °F 87% 29.89 in 4.0 mi ESE 9.2 mph - 0.01 in Rain Rain
6:34 PM 33.1 °F 26.1 °F 29.8 °F 88% 29.88 in 5.0 mi ESE 8.1 mph - 0.03 in Rain Light Rain
6:55 PM 33.1 °F 23.9 °F 30.2 °F 89% 29.87 in 4.0 mi ESE 12.7 mph - 0.06 in Rain Rain
7:15 PM 32.9 °F 22.8 °F 31.1 °F 93% 29.85 in 3.0 mi ESE 15.0 mph 18.4 mph 0.02 in Rain Rain
7:34 PM 32.9 °F 24.1 °F 31.5 °F 94% 29.84 in 5.0 mi ESE 11.5 mph 18.4 mph 0.03 in Rain Rain
7:55 PM 32.5 °F 23.7 °F 31.1 °F 94% 29.82 in 5.0 mi ESE 11.5 mph 17.3 mph 0.03 in Rain Light Rain
8:15 PM 32.7 °F 24.5 °F 31.3 °F 94% 29.81 in 5.0 mi ESE 10.4 mph - N/A Rain Light Rain
8:34 PM 32.5 °F 23.7 °F 31.6 °F 96% 29.81 in 4.0 mi ESE 11.5 mph 17.3 mph N/A Rain Light Rain
8:55 PM 32.5 °F 23.7 °F 31.8 °F 97% 29.78 in 3.0 mi ESE 11.5 mph 16.1 mph 0.01 in   Drizzle
9:15 PM 32.7 °F 24.5 °F 32.0 °F 97% 29.77 in 5.0 mi ESE 10.4 mph 16.1 mph N/A   Overcast
9:34 PM 32.9 °F 25.9 °F 32.0 °F 96% 29.76 in 5.0 mi ESE 8.1 mph - N/A Rain Rain
9:55 PM 32.9 °F 25.9 °F 32.0 °F 96% 29.76 in 4.0 mi ESE 8.1 mph - N/A   Overcast
10:14 PM 32.9 °F 26.7 °F 32.0 °F 96% 29.75 in 3.0 mi SE 6.9 mph - N/A   Overcast
10:35 PM 32.9 °F 26.7 °F 32.2 °F 97% 29.74 in 2.5 mi SE 6.9 mph - N/A   Overcast
11:14 PM 32.9 °F 28.5 °F 32.4 °F 98% 29.72 in 2.0 mi SE 4.6 mph - N/A   Overcast
11:55 PM 33.8 °F 28.6 °F 33.3 °F 98% 29.71 in 2.5 mi SE 5.8 mph - N/A   Overcast